Time,TemperatureF,DewpointF,PressureIn,WindDirection,WindDirectionDegrees,WindSpeedMPH,WindSpeedGustMPH,Humidity,HourlyPrecipIn,Conditions,Clouds,dailyrainin,SoftwareType,DateUTC
2013-03-31 00:00:00,40.7,35.6,30.13,WNW,283,4.0,9.0,82,0.00,,,0.00,Wunderground v.1.15,2013-03-31 04:00:00,
2013-03-31 00:10:00,40.8,35.4,30.14,West,276,3.0,3.0,81,0.00,,,0.00,Wunderground v.1.15,2013-03-31 04:10:00,
2013-03-31 00:15:00,40.9,35.5,30.14,West,266,4.0,8.0,81,0.00,,,0.00,Wunderground v.1.15,2013-03-31 04:15:00,
2013-03-31 00:20:00,41.1,35.4,30.14,West,261,5.0,9.0,80,0.00,,,0.00,Wunderground v.1.15,2013-03-31 04:20:00,
2013-03-31 00:30:00,41.5,35.5,30.14,West,278,5.0,5.0,79,0.00,,,0.00,Wunderground v.1.15,2013-03-31 04:30:00,
2013-03-31 00:40:00,41.5,35.2,30.14,West,262,5.0,5.0,78,0.00,,,0.00,Wunderground v.1.15,2013-03-31 04:40:00,
2013-03-31 00:45:00,41.5,35.2,30.14,WNW,302,4.0,9.0,78,0.00,,,0.00,Wunderground v.1.15,2013-03-31 04:45:00,
2013-03-31 00:50:00,41.5,35.2,30.14,West,261,4.0,9.0,78,0.00,,,0.00,Wunderground v.1.15,2013-03-31 04:50:00,
2013-03-31 00:55:00,41.4,35.1,30.14,WNW,296,4.0,9.0,78,0.00,,,0.00,Wunderground v.1.15,2013-03-31 04:55:00,
2013-03-31 01:00:00,41.4,34.7,30.14,West,281,3.0,3.0,77,0.00,,,0.00,Wunderground v.1.15,2013-03-31 05:00:00,
2013-03-31 01:10:00,41.4,34.7,30.14,WNW,282,3.0,10.0,77,0.00,,,0.00,Wunderground v.1.15,2013-03-31 05:10:00,
2013-03-31 01:15:00,41.4,34.7,30.14,West,259,4.0,10.0,77,0.00,,,0.00,Wunderground v.1.15,2013-03-31 05:15:00,
2013-03-31 01:20:00,41.3,35.0,30.15,West,259,4.0,4.0,78,0.00,,,0.00,Wunderground v.1.15,2013-03-31 05:20:00,
2013-03-31 01:25:00,41.3,35.3,30.15,West,263,4.0,10.0,79,0.00,,,0.00,Wunderground v.1.15,2013-03-31 05:25:00,
2013-03-31 01:30:00,41.3,35.3,30.15,West,280,4.0,10.0,79,0.00,,,0.00,Wunderground v.1.15,2013-03-31 05:30:00,
2013-03-31 01:35:00,41.2,35.2,30.15,West,260,5.0,10.0,79,0.00,,,0.00,Wunderground v.1.15,2013-03-31 05:35:00,
2013-03-31 01:40:00,41.2,35.5,30.15,WSW,241,5.0,5.0,80,0.00,,,0.00,Wunderground v.1.15,2013-03-31 05:40:00,
2013-03-31 01:50:00,41.3,35.6,30.15,West,281,5.0,5.0,80,0.00,,,0.00,Wunderground v.1.15,2013-03-31 05:50:00,
2013-03-31 01:55:00,41.2,35.5,30.14,WNW,282,5.0,10.0,80,0.00,,,0.00,Wunderground v.1.15,2013-03-31 05:55:00,
2013-03-31 02:00:00,41.2,35.5,30.14,WNW,290,5.0,5.0,80,0.00,,,0.00,Wunderground v.1.15,2013-03-31 06:00:00,
2013-03-31 02:10:00,40.9,35.2,30.14,NW,311,3.0,9.0,80,0.00,,,0.00,Wunderground v.1.15,2013-03-31 06:10:00,
2013-03-31 02:20:00,40.6,34.9,30.14,West,274,3.0,9.0,80,0.00,,,0.00,Wunderground v.1.15,2013-03-31 06:20:00,
2013-03-31 02:30:00,40.6,35.2,30.14,West,267,4.0,9.0,81,0.00,,,0.00,Wunderground v.1.15,2013-03-31 06:30:00,
2013-03-31 02:35:00,40.4,35.0,30.14,NW,305,4.0,9.0,81,0.00,,,0.00,Wunderground v.1.15,2013-03-31 06:35:00,
2013-03-31 02:40:00,39.9,34.5,30.14,NW,314,3.0,3.0,81,0.00,,,0.00,Wunderground v.1.15,2013-03-31 06:40:00,
2013-03-31 02:45:00,39.6,34.2,30.14,WNW,297,3.0,9.0,81,0.00,,,0.00,Wunderground v.1.15,2013-03-31 06:45:00,
2013-03-31 02:50:00,39.2,34.2,30.14,NW,320,3.0,3.0,82,0.00,,,0.00,Wunderground v.1.15,2013-03-31 06:50:00,
2013-03-31 02:55:00,39.3,34.3,30.13,NW,309,3.0,9.0,82,0.00,,,0.00,Wunderground v.1.15,2013-03-31 06:55:00,
2013-03-31 03:05:00,39.1,34.1,30.13,NW,311,3.0,8.0,82,0.00,,,0.00,Wunderground v.1.15,2013-03-31 07:05:00,
2013-03-31 03:10:00,38.8,34.1,30.13,NW,306,2.0,8.0,83,0.00,,,0.00,Wunderground v.1.15,2013-03-31 07:10:00,
2013-03-31 03:15:00,38.4,33.7,30.13,WNW,297,2.0,8.0,83,0.00,,,0.00,Wunderground v.1.15,2013-03-31 07:15:00,
2013-03-31 03:20:00,38.3,33.6,30.13,NW,316,2.0,2.0,83,0.00,,,0.00,Wunderground v.1.15,2013-03-31 07:20:00,
2013-03-31 03:25:00,38.0,33.3,30.13,NW,323,2.0,8.0,83,0.00,,,0.00,Wunderground v.1.15,2013-03-31 07:25:00,
2013-03-31 03:30:00,38.1,33.7,30.13,NNW,344,2.0,8.0,84,0.00,,,0.00,Wunderground v.1.15,2013-03-31 07:30:00,
2013-03-31 03:40:00,38.0,33.6,30.14,WNW,288,2.0,2.0,84,0.00,,,0.00,Wunderground v.1.15,2013-03-31 07:40:00,
2013-03-31 03:45:00,38.1,33.4,30.14,NW,321,3.0,3.0,83,0.00,,,0.00,Wunderground v.1.15,2013-03-31 07:45:00,
2013-03-31 03:50:00,38.1,33.7,30.14,West,280,3.0,3.0,84,0.00,,,0.00,Wunderground v.1.15,2013-03-31 07:50:00,
2013-03-31 03:55:00,38.0,33.3,30.14,WNW,290,3.0,8.0,83,0.00,,,0.00,Wunderground v.1.15,2013-03-31 07:55:00,
2013-03-31 04:00:00,38.0,33.6,30.14,NW,321,2.0,6.0,84,0.00,,,0.00,Wunderground v.1.15,2013-03-31 08:00:00,
2013-03-31 04:10:00,38.3,33.9,30.14,NNW,343,2.0,6.0,84,0.00,,,0.00,Wunderground v.1.15,2013-03-31 08:10:00,
2013-03-31 04:20:00,37.7,33.3,30.14,WNW,293,2.0,6.0,84,0.00,,,0.00,Wunderground v.1.15,2013-03-31 08:20:00,
2013-03-31 04:25:00,37.3,32.9,30.14,WNW,295,2.0,6.0,84,0.00,,,0.00,Wunderground v.1.15,2013-03-31 08:25:00,
2013-03-31 04:30:00,36.9,32.5,30.14,WNW,300,1.0,6.0,84,0.00,,,0.00,Wunderground v.1.15,2013-03-31 08:30:00,
2013-03-31 04:35:00,36.7,32.9,30.14,NW,304,1.0,6.0,86,0.00,,,0.00,Wunderground v.1.15,2013-03-31 08:35:00,
2013-03-31 04:40:00,36.6,32.8,30.14,NW,310,2.0,6.0,86,0.00,,,0.00,Wunderground v.1.15,2013-03-31 08:40:00,
2013-03-31 04:45:00,36.7,33.2,30.14,NNW,333,2.0,6.0,87,0.00,,,0.00,Wunderground v.1.15,2013-03-31 08:45:00,
2013-03-31 04:50:00,36.8,33.0,30.14,NW,305,2.0,2.0,86,0.00,,,0.00,Wunderground v.1.15,2013-03-31 08:50:00,
2013-03-31 05:00:00,35.6,31.2,30.14,NW,305,0.0,6.0,84,0.00,,,0.00,Wunderground v.1.15,2013-03-31 09:00:00,
2013-03-31 05:10:00,34.3,30.5,30.14,NW,305,1.0,6.0,86,0.00,,,0.00,Wunderground v.1.15,2013-03-31 09:10:00,
2013-03-31 05:15:00,33.7,30.0,30.14,NW,305,0.0,6.0,86,0.00,,,0.00,Wunderground v.1.15,2013-03-31 09:15:00,
2013-03-31 05:20:00,33.1,29.4,30.15,NW,305,0.0,6.0,86,0.00,,,0.00,Wunderground v.1.15,2013-03-31 09:20:00,
2013-03-31 05:25:00,32.6,29.2,30.15,NW,305,0.0,6.0,87,0.00,,,0.00,Wunderground v.1.15,2013-03-31 09:25:00,
2013-03-31 05:35:00,31.8,28.7,30.15,NW,305,0.0,6.0,88,0.00,,,0.00,Wunderground v.1.15,2013-03-31 09:35:00,
2013-03-31 05:40:00,31.4,28.3,30.15,NW,305,0.0,6.0,88,0.00,,,0.00,Wunderground v.1.15,2013-03-31 09:40:00,
2013-03-31 05:45:00,31.0,27.9,30.15,NW,305,0.0,6.0,88,0.00,,,0.00,Wunderground v.1.15,2013-03-31 09:45:00,
2013-03-31 05:50:00,30.7,27.8,30.15,NW,305,0.0,6.0,89,0.00,,,0.00,Wunderground v.1.15,2013-03-31 09:50:00,
2013-03-31 05:55:00,30.3,27.4,30.15,NW,305,0.0,6.0,89,0.00,,,0.00,Wunderground v.1.15,2013-03-31 09:55:00,
2013-03-31 06:00:00,30.0,27.2,30.15,NW,305,0.0,1.0,89,0.00,,,0.00,Wunderground v.1.15,2013-03-31 10:00:00,
2013-03-31 06:10:00,29.6,27.0,30.15,NW,305,0.0,1.0,90,0.00,,,0.00,Wunderground v.1.15,2013-03-31 10:10:00,
2013-03-31 06:15:00,29.6,27.0,30.14,NW,305,0.0,1.0,90,0.00,,,0.00,Wunderground v.1.15,2013-03-31 10:15:00,
2013-03-31 06:20:00,29.6,27.3,30.15,NW,305,1.0,1.0,91,0.00,,,0.00,Wunderground v.1.15,2013-03-31 10:20:00,
2013-03-31 06:25:00,29.4,27.1,30.15,NW,305,0.0,1.0,91,0.00,,,0.00,Wunderground v.1.15,2013-03-31 10:25:00,
2013-03-31 06:30:00,29.2,26.9,30.15,NW,305,0.0,1.0,91,0.00,,,0.00,Wunderground v.1.15,2013-03-31 10:30:00,
2013-03-31 06:40:00,29.0,26.7,30.15,NW,305,0.0,1.0,91,0.00,,,0.00,Wunderground v.1.15,2013-03-31 10:40:00,
2013-03-31 06:45:00,28.9,26.6,30.15,NW,305,0.0,1.0,91,0.00,,,0.00,Wunderground v.1.15,2013-03-31 10:45:00,
2013-03-31 06:50:00,28.9,26.9,30.15,NW,305,0.0,1.0,92,0.00,,,0.00,Wunderground v.1.15,2013-03-31 10:50:00,
2013-03-31 06:55:00,29.0,27.0,30.16,NW,305,0.0,1.0,92,0.00,,,0.00,Wunderground v.1.15,2013-03-31 10:55:00,
2013-03-31 07:00:00,29.1,27.1,30.16,NW,305,0.0,2.0,92,0.00,,,0.00,Wunderground v.1.15,2013-03-31 11:00:00,
2013-03-31 07:10:00,29.3,27.3,30.16,NW,305,0.0,2.0,92,0.00,,,0.00,Wunderground v.1.15,2013-03-31 11:10:00,
2013-03-31 07:15:00,29.7,27.7,30.16,NW,305,0.0,2.0,92,0.00,,,0.00,Wunderground v.1.15,2013-03-31 11:15:00,
2013-03-31 07:20:00,30.4,28.6,30.16,NW,305,0.0,2.0,93,0.00,,,0.00,Wunderground v.1.15,2013-03-31 11:20:00,
2013-03-31 07:25:00,30.9,29.1,30.16,NW,305,1.0,2.0,93,0.00,,,0.00,Wunderground v.1.15,2013-03-31 11:25:00,
2013-03-31 07:30:00,31.4,29.6,30.16,NW,305,0.0,2.0,93,0.00,,,0.00,Wunderground v.1.15,2013-03-31 11:30:00,
2013-03-31 07:35:00,31.6,29.8,30.16,NW,305,0.0,2.0,93,0.00,,,0.00,Wunderground v.1.15,2013-03-31 11:35:00,
2013-03-31 07:40:00,31.9,30.1,30.16,NW,305,0.0,2.0,93,0.00,,,0.00,Wunderground v.1.15,2013-03-31 11:40:00,
2013-03-31 07:45:00,32.2,30.4,30.16,NW,305,0.0,2.0,93,0.00,,,0.00,Wunderground v.1.15,2013-03-31 11:45:00,
2013-03-31 07:55:00,33.4,31.9,30.16,NW,305,0.0,2.0,94,0.00,,,0.00,Wunderground v.1.15,2013-03-31 11:55:00,
2013-03-31 08:00:00,34.0,32.5,30.16,NW,305,0.0,1.0,94,0.00,,,0.00,Wunderground v.1.15,2013-03-31 12:00:00,
2013-03-31 08:10:00,35.2,33.6,30.16,NW,305,0.0,1.0,94,0.00,,,0.00,Wunderground v.1.15,2013-03-31 12:10:00,
2013-03-31 08:15:00,36.1,34.5,30.16,NW,305,0.0,1.0,94,0.00,,,0.00,Wunderground v.1.15,2013-03-31 12:15:00,
2013-03-31 08:20:00,37.1,35.5,30.16,NW,305,0.0,1.0,94,0.00,,,0.00,Wunderground v.1.15,2013-03-31 12:20:00,
2013-03-31 08:25:00,38.5,36.9,30.16,NW,305,0.0,1.0,94,0.00,,,0.00,Wunderground v.1.15,2013-03-31 12:25:00,
2013-03-31 08:35:00,41.9,37.7,30.15,SSW,203,0.0,1.0,85,0.00,,,0.00,Wunderground v.1.15,2013-03-31 12:35:00,
2013-03-31 08:40:00,43.4,36.7,30.15,South,189,1.0,1.0,77,0.00,,,0.00,Wunderground v.1.15,2013-03-31 12:40:00,
2013-03-31 08:45:00,45.0,37.2,30.15,SSE,153,1.0,1.0,74,0.00,,,0.00,Wunderground v.1.15,2013-03-31 12:45:00,
2013-03-31 08:50:00,46.2,37.3,30.15,SSE,148,1.0,2.0,71,0.00,,,0.00,Wunderground v.1.15,2013-03-31 12:50:00,
2013-03-31 08:55:00,47.4,38.8,30.15,South,178,1.0,2.0,72,0.00,,,0.00,Wunderground v.1.15,2013-03-31 12:55:00,
2013-03-31 09:00:00,48.1,40.2,30.14,South,176,2.0,2.0,74,0.00,,,0.00,Wunderground v.1.15,2013-03-31 13:00:00,
2013-03-31 09:10:00,49.5,40.8,30.14,SE,140,1.0,3.0,72,0.00,,,0.00,Wunderground v.1.15,2013-03-31 13:10:00,
2013-03-31 09:15:00,49.9,39.4,30.15,SSW,197,2.0,4.0,67,0.00,,,0.00,Wunderground v.1.15,2013-03-31 13:15:00,
2013-03-31 09:20:00,50.0,39.8,30.15,SSW,200,2.0,3.0,68,0.00,,,0.00,Wunderground v.1.15,2013-03-31 13:20:00,
2013-03-31 09:25:00,49.9,39.4,30.15,SW,221,2.0,4.0,67,0.00,,,0.00,Wunderground v.1.15,2013-03-31 13:25:00,
2013-03-31 09:30:00,49.6,37.9,30.15,South,178,3.0,3.0,64,0.00,,,0.00,Wunderground v.1.15,2013-03-31 13:30:00,
2013-03-31 09:35:00,49.5,36.6,30.15,SSW,211,2.0,3.0,61,0.00,,,0.00,Wunderground v.1.15,2013-03-31 13:35:00,
2013-03-31 09:40:00,49.6,37.9,30.15,SSE,157,2.0,3.0,64,0.00,,,0.00,Wunderground v.1.15,2013-03-31 13:40:00,
2013-03-31 09:50:00,50.4,36.2,30.15,SSE,151,3.0,6.0,58,0.00,,,0.00,Wunderground v.1.15,2013-03-31 13:50:00,
2013-03-31 10:00:00,50.8,33.3,30.15,South,175,2.0,6.0,51,0.00,,,0.00,Wunderground v.1.15,2013-03-31 14:00:00,
2013-03-31 10:10:00,50.9,34.8,30.15,SE,129,3.0,6.0,54,0.00,,,0.00,Wunderground v.1.15,2013-03-31 14:10:00,
2013-03-31 10:15:00,51.0,34.9,30.15,SSE,153,3.0,6.0,54,0.00,,,0.00,Wunderground v.1.15,2013-03-31 14:15:00,
2013-03-31 10:20:00,51.4,34.8,30.15,East,101,3.0,6.0,53,0.00,,,0.00,Wunderground v.1.15,2013-03-31 14:20:00,
2013-03-31 10:25:00,51.6,34.0,30.15,SSW,207,3.0,6.0,51,0.00,,,0.00,Wunderground v.1.15,2013-03-31 14:25:00,
2013-03-31 10:30:00,51.9,34.8,30.15,SE,137,3.0,3.0,52,0.00,,,0.00,Wunderground v.1.15,2013-03-31 14:30:00,
2013-03-31 10:35:00,51.9,34.8,30.15,ESE,121,3.0,6.0,52,0.00,,,0.00,Wunderground v.1.15,2013-03-31 14:35:00,
2013-03-31 10:40:00,52.0,35.4,30.15,SE,139,3.0,6.0,53,0.00,,,0.00,Wunderground v.1.15,2013-03-31 14:40:00,
2013-03-31 10:45:00,52.0,35.9,30.15,SE,145,3.0,6.0,54,0.00,,,0.00,Wunderground v.1.15,2013-03-31 14:45:00,
2013-03-31 10:55:00,52.1,36.4,30.15,SSE,156,3.0,6.0,55,0.00,,,0.00,Wunderground v.1.15,2013-03-31 14:55:00,
2013-03-31 11:00:00,51.7,37.8,30.15,ESE,112,4.0,4.0,59,0.00,,,0.00,Wunderground v.1.15,2013-03-31 15:00:00,
2013-03-31 11:10:00,51.8,39.6,30.15,SSE,153,3.0,7.0,63,0.00,,,0.00,Wunderground v.1.15,2013-03-31 15:10:00,
2013-03-31 11:15:00,52.1,39.1,30.15,ESE,118,3.0,7.0,61,0.00,,,0.00,Wunderground v.1.15,2013-03-31 15:15:00,
2013-03-31 11:20:00,52.0,40.2,30.15,South,180,3.0,7.0,64,0.00,,,0.00,Wunderground v.1.15,2013-03-31 15:20:00,
2013-03-31 11:30:00,52.4,39.8,30.14,ESE,120,3.0,7.0,62,0.00,,,0.00,Wunderground v.1.15,2013-03-31 15:30:00,
2013-03-31 11:35:00,52.3,39.2,30.14,SSE,160,3.0,7.0,61,0.00,,,0.00,Wunderground v.1.15,2013-03-31 15:35:00,
2013-03-31 11:40:00,52.5,39.0,30.14,SSE,167,3.0,7.0,60,0.00,,,0.00,Wunderground v.1.15,2013-03-31 15:40:00,
2013-03-31 11:45:00,53.0,39.9,30.14,South,174,3.0,7.0,61,0.00,,,0.00,Wunderground v.1.15,2013-03-31 15:45:00,
2013-03-31 11:50:00,53.5,39.1,30.14,SE,139,3.0,7.0,58,0.00,,,0.00,Wunderground v.1.15,2013-03-31 15:50:00,
2013-03-31 12:00:00,53.2,40.1,30.14,SSW,200,4.0,9.0,61,0.00,,,0.00,Wunderground v.1.15,2013-03-31 16:00:00,
2013-03-31 12:10:00,54.0,39.1,30.13,SE,131,4.0,4.0,57,0.00,,,0.00,Wunderground v.1.15,2013-03-31 16:10:00,
2013-03-31 12:15:00,54.6,39.2,30.13,SSW,195,3.0,9.0,56,0.00,,,0.00,Wunderground v.1.15,2013-03-31 16:15:00,
2013-03-31 12:20:00,55.4,40.9,30.13,SW,224,3.0,9.0,58,0.00,,,0.00,Wunderground v.1.15,2013-03-31 16:20:00,
2013-03-31 12:25:00,55.6,35.1,30.13,South,183,3.0,9.0,46,0.00,,,0.00,Wunderground v.1.15,2013-03-31 16:25:00,
2013-03-31 12:30:00,56.1,35.0,30.13,SSW,211,3.0,9.0,45,0.00,,,0.00,Wunderground v.1.15,2013-03-31 16:30:00,
2013-03-31 12:40:00,56.1,35.0,30.13,WNW,283,4.0,9.0,45,0.00,,,0.00,Wunderground v.1.15,2013-03-31 16:40:00,
2013-03-31 12:45:00,56.0,34.4,30.13,SSW,202,4.0,9.0,44,0.00,,,0.00,Wunderground v.1.15,2013-03-31 16:45:00,
2013-03-31 12:50:00,55.0,34.0,30.13,SW,217,5.0,5.0,45,0.00,,,0.00,Wunderground v.1.15,2013-03-31 16:50:00,
2013-03-31 12:55:00,54.9,34.5,30.12,WNW,288,5.0,7.0,46,0.00,,,0.00,Wunderground v.1.15,2013-03-31 16:55:00,
2013-03-31 13:00:00,54.4,35.6,30.12,SW,215,6.0,15.0,49,0.00,,,0.00,Wunderground v.1.15,2013-03-31 17:00:00,
2013-03-31 13:10:00,54.1,34.8,30.12,SSW,200,5.0,15.0,48,0.00,,,0.00,Wunderground v.1.15,2013-03-31 17:10:00,
2013-03-31 13:15:00,54.4,35.1,30.12,West,276,4.0,15.0,48,0.00,,,0.00,Wunderground v.1.15,2013-03-31 17:15:00,
2013-03-31 13:20:00,54.5,33.6,30.12,SSW,207,4.0,15.0,45,0.00,,,0.00,Wunderground v.1.15,2013-03-31 17:20:00,
2013-03-31 13:25:00,55.0,34.6,30.12,SW,231,4.0,15.0,46,0.00,,,0.00,Wunderground v.1.15,2013-03-31 17:25:00,
2013-03-31 13:30:00,54.9,34.5,30.11,SSW,195,4.0,15.0,46,0.00,,,0.00,Wunderground v.1.15,2013-03-31 17:30:00,
2013-03-31 13:35:00,55.5,33.3,30.11,SSW,201,4.0,15.0,43,0.00,,,0.00,Wunderground v.1.15,2013-03-31 17:35:00,
2013-03-31 13:40:00,55.4,33.8,30.11,SSW,201,4.0,15.0,44,0.00,,,0.00,Wunderground v.1.15,2013-03-31 17:40:00,
2013-03-31 13:50:00,55.2,34.2,30.11,SSW,203,4.0,4.0,45,0.00,,,0.00,Wunderground v.1.15,2013-03-31 17:50:00,
2013-03-31 13:55:00,54.9,40.4,30.10,South,181,3.0,15.0,58,0.00,,,0.00,Wunderground v.1.15,2013-03-31 17:55:00,
2013-03-31 14:00:00,53.5,40.4,30.11,SSW,194,4.0,16.0,61,0.00,,,0.00,Wunderground v.1.15,2013-03-31 18:00:00,
2013-03-31 14:10:00,52.0,39.8,30.10,SSW,210,5.0,16.0,63,0.00,,,0.00,Wunderground v.1.15,2013-03-31 18:10:00,
2013-03-31 14:20:00,51.0,39.2,30.10,SSE,150,4.0,4.0,64,0.00,,,0.00,Wunderground v.1.15,2013-03-31 18:20:00,
2013-03-31 14:25:00,50.6,39.7,30.10,West,271,5.0,5.0,66,0.00,,,0.00,Wunderground v.1.15,2013-03-31 18:25:00,
2013-03-31 14:30:00,50.8,40.2,30.10,WNW,293,4.0,4.0,67,0.00,,,0.00,Wunderground v.1.15,2013-03-31 18:30:00,
2013-03-31 14:35:00,51.1,40.5,30.10,SW,217,3.0,5.0,67,0.00,,,0.00,Wunderground v.1.15,2013-03-31 18:35:00,
2013-03-31 14:40:00,51.1,40.1,30.10,WSW,240,4.0,4.0,66,0.00,,,0.00,Wunderground v.1.15,2013-03-31 18:40:00,
2013-03-31 14:50:00,51.6,39.4,30.09,SSW,206,3.0,16.0,63,0.00,,,0.00,Wunderground v.1.15,2013-03-31 18:50:00,
2013-03-31 14:55:00,52.1,38.2,30.09,SW,214,3.0,16.0,59,0.00,,,0.00,Wunderground v.1.15,2013-03-31 18:55:00,
2013-03-31 15:00:00,52.4,37.6,30.09,SW,229,3.0,3.0,57,0.00,,,0.00,Wunderground v.1.15,2013-03-31 19:00:00,
2013-03-31 15:10:00,52.6,36.9,30.08,South,183,4.0,4.0,55,0.00,,,0.00,Wunderground v.1.15,2013-03-31 19:10:00,
2013-03-31 15:15:00,52.7,37.0,30.08,SW,221,4.0,11.0,55,0.00,,,0.00,Wunderground v.1.15,2013-03-31 19:15:00,
2013-03-31 15:20:00,52.9,35.7,30.08,South,174,4.0,4.0,52,0.00,,,0.00,Wunderground v.1.15,2013-03-31 19:20:00,
2013-03-31 15:30:00,53.1,35.4,30.08,SE,146,3.0,11.0,51,0.00,,,0.00,Wunderground v.1.15,2013-03-31 19:30:00,
2013-03-31 15:35:00,52.9,36.2,30.07,SSW,205,3.0,11.0,53,0.00,,,0.00,Wunderground v.1.15,2013-03-31 19:35:00,
2013-03-31 15:40:00,53.0,36.8,30.07,South,172,3.0,11.0,54,0.00,,,0.00,Wunderground v.1.15,2013-03-31 19:40:00,
2013-03-31 15:45:00,52.7,37.9,30.07,SW,226,4.0,11.0,57,0.00,,,0.00,Wunderground v.1.15,2013-03-31 19:45:00,
2013-03-31 15:50:00,52.5,39.0,30.07,SSW,201,3.0,11.0,60,0.00,,,0.00,Wunderground v.1.15,2013-03-31 19:50:00,
2013-03-31 15:55:00,52.2,39.6,30.06,South,188,3.0,11.0,62,0.00,,,0.00,Wunderground v.1.15,2013-03-31 19:55:00,
2013-03-31 16:00:00,51.9,40.1,30.06,SSE,147,4.0,4.0,64,0.00,,,0.00,Wunderground v.1.15,2013-03-31 20:00:00,
2013-03-31 16:10:00,51.6,39.8,30.06,South,170,3.0,10.0,64,0.00,,,0.00,Wunderground v.1.15,2013-03-31 20:10:00,
2013-03-31 16:15:00,51.6,40.6,30.06,South,178,2.0,10.0,66,0.00,,,0.00,Wunderground v.1.15,2013-03-31 20:15:00,
2013-03-31 16:20:00,51.4,40.4,30.06,South,179,2.0,2.0,66,0.00,,,0.00,Wunderground v.1.15,2013-03-31 20:20:00,
2013-03-31 16:25:00,51.3,40.7,30.06,SSE,164,2.0,10.0,67,0.00,,,0.00,Wunderground v.1.15,2013-03-31 20:25:00,
2013-03-31 16:30:00,51.0,40.4,30.05,SSE,162,2.0,10.0,67,0.00,,,0.00,Wunderground v.1.15,2013-03-31 20:30:00,
2013-03-31 16:40:00,50.2,40.4,30.06,SE,136,3.0,10.0,69,0.00,,,0.00,Wunderground v.1.15,2013-03-31 20:40:00,
2013-03-31 16:45:00,49.8,40.4,30.05,South,174,2.0,10.0,70,0.00,,,0.00,Wunderground v.1.15,2013-03-31 20:45:00,
2013-03-31 16:50:00,49.6,40.6,30.05,SE,136,2.0,10.0,71,0.00,,,0.00,Wunderground v.1.15,2013-03-31 20:50:00,
2013-03-31 16:55:00,49.5,40.8,30.05,SE,136,2.0,10.0,72,0.00,,,0.00,Wunderground v.1.15,2013-03-31 20:55:00,
2013-03-31 17:00:00,49.1,40.5,30.05,SSW,202,2.0,2.0,72,0.00,,,0.00,Wunderground v.1.15,2013-03-31 21:00:00,
2013-03-31 17:10:00,48.7,40.8,30.05,SE,128,2.0,6.0,74,0.00,,,0.00,Wunderground v.1.15,2013-03-31 21:10:00,
2013-03-31 17:15:00,48.3,41.1,30.05,SE,139,2.0,6.0,76,0.00,,,0.00,Wunderground v.1.15,2013-03-31 21:15:00,
2013-03-31 17:20:00,47.8,40.9,30.05,SE,139,2.0,6.0,77,0.00,,,0.00,Wunderground v.1.15,2013-03-31 21:20:00,
2013-03-31 17:25:00,47.3,41.1,30.05,SE,133,2.0,6.0,79,0.00,,,0.00,Wunderground v.1.15,2013-03-31 21:25:00,
2013-03-31 17:30:00,46.9,41.1,30.04,SSE,168,2.0,6.0,80,0.00,,,0.00,Wunderground v.1.15,2013-03-31 21:30:00,
2013-03-31 17:35:00,46.7,40.9,30.04,South,188,3.0,6.0,80,0.00,,,0.00,Wunderground v.1.15,2013-03-31 21:35:00,
2013-03-31 17:45:00,46.5,40.7,30.04,South,180,3.0,6.0,80,0.00,,,0.00,Wunderground v.1.15,2013-03-31 21:45:00,
2013-03-31 17:50:00,46.6,40.8,30.04,South,186,2.0,6.0,80,0.00,,,0.00,Wunderground v.1.15,2013-03-31 21:50:00,
2013-03-31 17:55:00,46.7,40.5,30.04,South,185,2.0,6.0,79,0.00,,,0.00,Wunderground v.1.15,2013-03-31 21:55:00,
2013-03-31 18:00:00,46.8,40.3,30.03,South,178,2.0,6.0,78,0.00,,,0.00,Wunderground v.1.15,2013-03-31 22:00:00,
2013-03-31 18:10:00,47.4,39.9,30.03,South,179,3.0,3.0,75,0.00,,,0.00,Wunderground v.1.15,2013-03-31 22:10:00,
2013-03-31 18:15:00,47.7,39.8,30.03,ESE,120,3.0,6.0,74,0.00,,,0.00,Wunderground v.1.15,2013-03-31 22:15:00,
2013-03-31 18:25:00,47.8,40.3,30.02,SE,141,3.0,6.0,75,0.00,,,0.00,Wunderground v.1.15,2013-03-31 22:25:00,
2013-03-31 18:30:00,47.7,40.5,30.02,SE,143,2.0,6.0,76,0.00,,,0.00,Wunderground v.1.15,2013-03-31 22:30:00,
2013-03-31 18:35:00,47.6,40.4,30.02,SE,135,3.0,6.0,76,0.00,,,0.00,Wunderground v.1.15,2013-03-31 22:35:00,
2013-03-31 18:40:00,47.4,40.2,30.02,South,174,3.0,6.0,76,0.00,,,0.00,Wunderground v.1.15,2013-03-31 22:40:00,
2013-03-31 18:45:00,47.2,40.0,30.01,SSE,151,3.0,6.0,76,0.00,,,0.00,Wunderground v.1.15,2013-03-31 22:45:00,
2013-03-31 18:50:00,47.1,39.9,30.01,SE,127,4.0,4.0,76,0.00,,,0.00,Wunderground v.1.15,2013-03-31 22:50:00,
2013-03-31 19:00:00,46.8,39.6,30.01,SSE,164,3.0,10.0,76,0.00,,,0.00,Wunderground v.1.15,2013-03-31 23:00:00,
2013-03-31 19:10:00,46.6,39.1,30.01,SSE,147,3.0,10.0,75,0.00,,,0.00,Wunderground v.1.15,2013-03-31 23:10:00,
2013-03-31 19:15:00,46.5,39.0,30.01,SE,138,3.0,10.0,75,0.00,,,0.00,Wunderground v.1.15,2013-03-31 23:15:00,
2013-03-31 19:20:00,46.4,38.9,30.00,South,171,3.0,3.0,75,0.00,,,0.00,Wunderground v.1.15,2013-03-31 23:20:00,
2013-03-31 19:25:00,46.3,38.8,30.01,SSE,148,3.0,10.0,75,0.00,,,0.00,Wunderground v.1.15,2013-03-31 23:25:00,
2013-03-31 19:30:00,46.3,39.1,30.01,SSE,148,3.0,3.0,76,0.00,,,0.00,Wunderground v.1.15,2013-03-31 23:30:00,
2013-03-31 19:40:00,46.4,38.6,30.00,SSE,165,3.0,10.0,74,0.00,,,0.00,Wunderground v.1.15,2013-03-31 23:40:00,
2013-03-31 19:45:00,46.6,38.4,29.99,SE,135,3.0,10.0,73,0.00,,,0.00,Wunderground v.1.15,2013-03-31 23:45:00,
2013-03-31 19:50:00,46.7,38.1,29.99,South,176,3.0,3.0,72,0.00,,,0.00,Wunderground v.1.15,2013-03-31 23:50:00,
2013-03-31 19:55:00,46.9,38.0,29.99,SE,140,3.0,10.0,71,0.00,,,0.00,Wunderground v.1.15,2013-03-31 23:55:00,
2013-03-31 20:00:00,47.1,37.8,29.98,South,170,4.0,8.0,70,0.00,,,0.00,Wunderground v.1.15,2013-04-01 00:00:00,
2013-03-31 20:10:00,47.2,37.5,29.97,SE,124,3.0,8.0,69,0.00,,,0.00,Wunderground v.1.15,2013-04-01 00:10:00,
2013-03-31 20:15:00,47.3,37.6,29.97,South,178,3.0,8.0,69,0.00,,,0.00,Wunderground v.1.15,2013-04-01 00:15:00,
2013-03-31 20:25:00,47.4,37.7,29.97,SE,127,3.0,8.0,69,0.00,,,0.00,Wunderground v.1.15,2013-04-01 00:25:00,
2013-03-31 20:30:00,47.4,37.7,29.96,SSE,151,4.0,8.0,69,0.00,,,0.00,Wunderground v.1.15,2013-04-01 00:30:00,
2013-03-31 20:35:00,47.4,37.7,29.96,SE,137,4.0,8.0,69,0.00,,,0.00,Wunderground v.1.15,2013-04-01 00:35:00,
2013-03-31 20:40:00,47.4,37.7,29.96,SE,139,4.0,4.0,69,0.00,,,0.00,Wunderground v.1.15,2013-04-01 00:40:00,
2013-03-31 20:45:00,47.3,38.0,29.95,SE,128,4.0,8.0,70,0.00,,,0.00,Wunderground v.1.15,2013-04-01 00:45:00,
2013-03-31 20:55:00,47.3,38.4,29.94,ESE,106,4.0,8.0,71,0.00,,,0.00,Wunderground v.1.15,2013-04-01 00:55:00,
2013-03-31 21:00:00,47.2,38.3,29.94,SE,134,4.0,10.0,71,0.00,,,0.00,Wunderground v.1.15,2013-04-01 01:00:00,
2013-03-31 21:10:00,47.4,38.8,29.94,ESE,117,4.0,10.0,72,0.00,,,0.00,Wunderground v.1.15,2013-04-01 01:10:00,
2013-03-31 21:15:00,47.5,38.9,29.94,ESE,114,4.0,10.0,72,0.00,,,0.00,Wunderground v.1.15,2013-04-01 01:15:00,
2013-03-31 21:25:00,47.5,39.3,29.93,ESE,120,4.0,10.0,73,0.00,,,0.00,Wunderground v.1.15,2013-04-01 01:25:00,
2013-03-31 21:30:00,47.5,39.3,29.93,SE,129,4.0,10.0,73,0.00,,,0.00,Wunderground v.1.15,2013-04-01 01:30:00,
2013-03-31 21:35:00,47.2,39.7,29.92,East,98,5.0,10.0,75,0.00,,,0.00,Wunderground v.1.15,2013-04-01 01:35:00,
2013-03-31 21:40:00,46.8,40.0,29.92,SE,132,4.0,10.0,77,0.00,,,0.00,Wunderground v.1.15,2013-04-01 01:40:00,
2013-03-31 21:45:00,46.5,40.3,29.91,SE,124,4.0,10.0,79,0.00,,,0.00,Wunderground v.1.15,2013-04-01 01:45:00,
2013-03-31 21:50:00,46.4,40.2,29.91,ESE,122,5.0,5.0,79,0.00,,,0.00,Wunderground v.1.15,2013-04-01 01:50:00,
2013-03-31 22:00:00,46.3,40.8,29.89,SSE,148,6.0,10.0,81,0.00,,,0.01,Wunderground v.1.15,2013-04-01 02:00:00,
2013-03-31 22:10:00,45.9,41.3,29.89,SW,222,5.0,10.0,84,0.07,,,0.02,Wunderground v.1.15,2013-04-01 02:10:00,
2013-03-31 22:15:00,45.6,41.4,29.88,ESE,112,5.0,10.0,85,0.07,,,0.03,Wunderground v.1.15,2013-04-01 02:15:00,
2013-03-31 22:20:00,45.4,41.5,29.87,ESE,106,4.0,4.0,86,0.07,,,0.03,Wunderground v.1.15,2013-04-01 02:20:00,
2013-03-31 22:25:00,45.2,41.9,29.86,SSE,158,5.0,5.0,88,0.07,,,0.04,Wunderground v.1.15,2013-04-01 02:25:00,
2013-03-31 22:35:00,45.4,42.3,29.85,ESE,122,6.0,10.0,89,0.07,,,0.05,Wunderground v.1.15,2013-04-01 02:35:00,
2013-03-31 22:40:00,45.4,42.3,29.85,ESE,116,6.0,10.0,89,0.07,,,0.06,Wunderground v.1.15,2013-04-01 02:40:00,
2013-03-31 22:45:00,45.4,42.3,29.83,ESE,120,6.0,10.0,89,0.07,,,0.06,Wunderground v.1.15,2013-04-01 02:45:00,
2013-03-31 22:50:00,45.4,42.6,29.83,ESE,122,6.0,6.0,90,0.06,,,0.06,Wunderground v.1.15,2013-04-01 02:50:00,
2013-03-31 22:55:00,45.4,42.6,29.82,ENE,77,6.0,7.0,90,0.04,,,0.06,Wunderground v.1.15,2013-04-01 02:55:00,
2013-03-31 23:05:00,45.6,42.8,29.82,ESE,120,7.0,15.0,90,0.00,,,0.06,Wunderground v.1.15,2013-04-01 03:05:00,
2013-03-31 23:10:00,45.7,43.2,29.81,ESE,114,6.0,6.0,91,0.17,,,0.08,Wunderground v.1.15,2013-04-01 03:10:00,
2013-03-31 23:20:00,45.7,43.2,29.79,ESE,121,6.0,15.0,91,0.06,,,0.08,Wunderground v.1.15,2013-04-01 03:20:00,
2013-03-31 23:25:00,45.7,43.2,29.79,SE,131,6.0,15.0,91,0.04,,,0.09,Wunderground v.1.15,2013-04-01 03:25:00,
2013-03-31 23:35:00,45.6,43.4,29.78,ESE,113,6.0,15.0,92,0.07,,,0.10,Wunderground v.1.15,2013-04-01 03:35:00,
2013-03-31 23:40:00,45.6,43.4,29.78,SSE,165,6.0,15.0,92,0.07,,,0.10,Wunderground v.1.15,2013-04-01 03:40:00,
2013-03-31 23:50:00,45.6,43.4,29.76,ESE,123,6.0,15.0,92,0.10,,,0.12,Wunderground v.1.15,2013-04-01 03:50:00,